Temp
-9 -9 -10 -9 -10 -10 -10 -9 -9 -10 -11 -10 -10 -10 -10 -10 -10 -10 -10 -10 -10 -10 -11 -12 -12 -12 -12 -12 -13 -13 -13 -13
-9 -10 -10 -10 -10 -10 -10 -10 -10 -10 -10 -11 -11 -10 -10 -9 -10 -10 -11 -11 -11 -11 -11 -11 -12 -12 -12 -12 -12 -13 -13 -13
-9 -10 -10 -10 -10 -10 -10 -10 -11 -10 -10 -10 -11 -11 -11 -11 -10 -10 -10 -11 -12 -12 -12 -12 -12 -13 -13 -13 -13 -13 -13 -13
-9 -10 -10 -10 -11 -10 -10 -11 -11 -11 -10 -10 -10 -11 -11 -11 -12 -12 -11 -11 -11 -12 -13 -12 -12 -13 -13 -13 -13 -13 -13 -13
-10 -10 -10 -10 -10 -10 -11 -11 -11 -12 -12 -11 -11 -11 -11 -12 -12 -12 -12 -13 -12 -12 -12 -13 -12 -12 -13 -13 -14 -13 -13 -14
-10 -10 -10 -10 -10 -10 -10 -10 -11 -11 -12 -12 -12 -12 -12 -11 -12 -12 -12 -12 -13 -13 -13 -13 -13 -13 -13 -13 -14 -14 -13 -14
-10 -11 -11 -10 -10 -9 -9 -10 -10 -11 -11 -12 -12 -12 -12 -12 -12 -12 -12 -13 -13 -13 -14 -14 -14 -13 -13 -13 -14 -14 -15 -14
-11 -11 -10 -10 -10 -10 -10 -10 -10 -9 -10 -10 -10 -11 -11 -12 -13 -13 -13 -13 -13 -14 -13 -13 -14 -14 -14 -14 -14 -14 -15 -14
-11 -11 -11 -11 -11 -10 -10 -10 -11 -11 -11 -11 -12 -12 -12 -12 -13 -14 -15 -14 -14 -15 -16 -15 -14 -14 -14 -14 -14 -14 -14 -14
-12 -12 -12 -11 -11 -11 -11 -11 -11 -12 -12 -12 -13 -14 -15 -16 -17 -17 -16 -16 -16 -15 -17 -16 -15 -15 -14 -14 -14 -14 -15 -14
-13 -13 -12 -12 -12 -12 -12 -13 -12 -13 -15 -16 -16 -17 -18 -19 -20 -19 -19 -19 -19 -18 -17 -17 -17 -16 -15 -14 -14 -14 -15 -14
-14 -13 -13 -13 -13 -13 -14 -14 -15 -16 -17 -19 -19 -19 -19 -20 -19 -19 -18 -18 -19 -18 -17 -17 -16 -16 -16 -15 -15 -15 -15 -15
-14 -14 -13 -13 -13 -14 -16 -18 -19 -19 -19 -19 -19 -19 -20 -20 -19 -19 -18 -18 -17 -19 -18 -18 -17 -16 -16 -16 -15 -15 -14 -15
-14 -14 -14 -15 -16 -17 -18 -19 -19 -20 -20 -20 -21 -20 -20 -19 -19 -19 -18 -18 -17 -17 -18 -17 -18 -18 -17 -17 -16 -16 -15 -15
-15 -16 -17 -18 -20 -20 -20 -20 -20 -21 -22 -22 -22 -20 -20 -19 -19 -19 -17 -18 -18 -17 -16 -17 -17 -18 -17 -17 -15 -16 -15 -15
-18 -19 -21 -21 -21 -21 -21 -22 -23 -24 -23 -23 -22 -20 -20 -19 -19 -19 -18 -17 -17 -17 -17 -17 -17 -17 -17 -17 -17 -16 -15 -15
-20 -22 -22 -22 -22 -23 -24 -24 -24 -24 -25 -23 -22 -20 -19 -19 -19 -19 -17 -17 -17 -18 -18 -17 -18 -18 -17 -17 -17 -16 -17 -16
-22 -22 -22 -23 -24 -24 -24 -24 -24 -24 -24 -23 -22 -20 -19 -19 -19 -18 -17 -17 -17 -17 -17 -18 -18 -18 -18 -17 -17 -17 -17 -16
-22 -23 -23 -24 -24 -24 -24 -24 -24 -24 -24 -23 -21 -20 -20 -20 -19 -18 -17 -17 -18 -17 -17 -18 -18 -18 -17 -17 -17 -17 -17 -16
Height
5784 5786 5786 5785 5785 5784 5783 5783 5784 5782 5780 5777 5776 5775 5775 5774 5774 5774 5773 5771 5769 5768 5767 5766 5766 5766 5765 5765 5764 5764 5765 5765
5780 5780 5778 5778 5777 5775 5773 5772 5773 5773 5773 5771 5769 5767 5764 5763 5762 5762 5762 5760 5756 5755 5756 5755 5756 5756 5756 5756 5755 5754 5754 5755
5772 5771 5771 5770 5769 5767 5765 5763 5761 5759 5759 5759 5757 5756 5755 5752 5750 5749 5749 5747 5746 5742 5742 5741 5743 5744 5743 5744 5745 5744 5744 5744
5761 5762 5762 5761 5758 5757 5756 5753 5748 5744 5743 5746 5745 5744 5741 5740 5740 5738 5735 5732 5731 5728 5728 5727 5729 5731 5731 5733 5732 5732 5733 5733
5750 5751 5750 5749 5747 5747 5745 5742 5738 5733 5727 5730 5730 5731 5729 5725 5723 5720 5719 5717 5716 5713 5713 5711 5715 5717 5718 5719 5720 5722 5723 5723
5733 5733 5733 5733 5732 5731 5729 5726 5723 5720 5715 5710 5712 5711 5709 5704 5703 5701 5699 5699 5700 5699 5698 5695 5696 5702 5702 5705 5706 5708 5710 5711
5720 5719 5717 5714 5713 5711 5708 5707 5705 5702 5697 5690 5685 5685 5684 5679 5677 5676 5677 5676 5677 5678 5681 5680 5677 5684 5687 5690 5692 5693 5698 5700
5711 5705 5700 5698 5695 5693 5692 5688 5685 5683 5680 5671 5661 5656 5653 5649 5646 5643 5644 5652 5651 5652 5655 5659 5661 5665 5670 5674 5677 5678 5682 5686
5694 5689 5684 5679 5676 5676 5671 5669 5664 5657 5653 5648 5639 5627 5615 5611 5605 5605 5605 5611 5622 5624 5626 5633 5639 5645 5651 5656 5661 5662 5665 5671
5677 5673 5669 5664 5660 5657 5652 5648 5642 5630 5617 5613 5608 5593 5583 5573 5571 5567 5565 5573 5584 5593 5598 5605 5613 5622 5631 5638 5643 5645 5648 5655
5659 5654 5652 5648 5641 5637 5626 5616 5613 5607 5589 5577 5569 5563 5555 5552 5546 5543 5536 5536 5546 5561 5571 5581 5590 5602 5611 5618 5624 5629 5631 5640
5643 5638 5634 5628 5622 5614 5602 5586 5582 5576 5562 5551 5545 5540 5535 5532 5529 5524 5516 5513 5524 5534 5547 5557 5569 5580 5591 5599 5605 5611 5615 5623
5626 5621 5615 5608 5598 5589 5580 5566 5556 5546 5540 5533 5527 5524 5520 5516 5512 5506 5499 5495 5495 5513 5523 5535 5546 5558 5569 5579 5587 5593 5598 5606
5603 5597 5590 5582 5574 5566 5557 5550 5536 5524 5519 5516 5510 5511 5506 5502 5499 5492 5483 5481 5489 5498 5508 5515 5530 5540 5550 5560 5567 5576 5576 5590
5583 5575 5565 5556 5549 5541 5533 5528 5515 5503 5494 5496 5494 5498 5494 5491 5486 5480 5471 5470 5478 5485 5494 5506 5516 5527 5534 5541 5553 5561 5570 5575
5558 5551 5543 5538 5528 5520 5510 5501 5493 5484 5479 5479 5481 5485 5483 5480 5474 5464 5462 5466 5471 5479 5488 5495 5506 5511 5521 5529 5537 5536 5552 5563
5545 5537 5530 5521 5512 5504 5497 5490 5484 5475 5468 5467 5472 5475 5475 5471 5461 5453 5451 5459 5464 5471 5480 5489 5496 5504 5511 5521 5529 5536 5543 5547
5529 5523 5514 5506 5500 5494 5488 5480 5472 5466 5459 5461 5464 5465 5467 5463 5453 5445 5444 5452 5458 5464 5472 5480 5487 5496 5504 5512 5519 5524 5529 5535
5516 5507 5503 5495 5490 5484 5477 5470 5461 5457 5454 5456 5457 5460 5460 5457 5450 5444 5442 5447 5451 5457 5464 5471 5479 5487 5494 5500 5506 5512 5517 5522
Wind_Speed
34 30 31 33 33 36 38 40 40 40 39 42 38 36 36 36 37 37 36 37 37 39 35 35 36 36 40 41 43 45 44 43
34 33 36 38 40 41 42 43 46 47 49 47 48 46 47 47 45 45 44 42 41 43 36 41 40 36 41 43 46 47 46 46
35 36 37 40 43 45 47 48 50 52 54 53 52 54 55 52 52 52 52 48 44 45 43 40 42 43 44 46 47 48 48 47
40 42 43 44 45 47 49 50 54 59 61 60 62 61 61 62 61 59 58 59 57 52 51 48 46 46 50 51 50 50 49 50
42 43 46 51 54 54 54 57 59 61 64 66 65 65 66 68 70 69 68 65 63 63 58 56 53 49 50 52 54 51 52 52
57 54 53 55 56 58 62 64 64 65 65 67 66 69 73 75 78 77 79 76 73 67 64 60 56 54 52 52 54 55 52 55
62 58 61 64 65 67 68 68 68 68 70 73 75 78 78 81 81 81 85 83 82 79 74 68 62 56 56 56 54 57 55 55
61 64 67 69 69 71 72 73 76 76 76 84 89 89 90 91 93 93 89 89 87 83 82 79 70 64 58 57 56 58 59 56
71 72 72 75 75 75 79 78 80 86 91 92 96 102 106 108 109 104 99 98 95 82 77 79 79 73 63 58 60 60 61 60
72 74 74 75 77 79 82 83 89 96 102 102 103 108 108 101 91 91 97 89 95 94 76 75 74 72 70 61 58 64 65 61
70 73 73 75 78 83 90 96 96 94 101 97 94 86 81 68 56 58 61 66 73 78 72 73 72 72 67 66 67 65 70 64
71 73 75 80 85 89 93 97 93 90 87 75 74 73 65 55 45 50 59 58 57 60 63 64 73 73 71 67 67 69 72 63
74 78 83 86 88 87 85 80 76 78 73 75 72 68 52 54 52 60 51 46 50 56 58 63 63 64 66 65 67 72 68 67
80 83 86 85 80 77 77 74 78 79 79 76 69 58 43 40 43 43 48 52 49 54 57 64 64 68 70 70 69 72 72 66
80 80 78 76 71 72 75 73 75 78 77 65 55 46 36 38 41 38 39 43 48 38 35 49 55 63 66 66 64 65 65 66
75 71 68 65 68 69 69 68 63 60 55 46 44 31 34 38 34 39 34 45 42 48 48 52 58 63 65 61 60 59 47 60
67 61 62 62 61 55 51 55 54 50 41 31 32 25 32 31 39 38 30 39 42 51 53 44 52 59 57 53 51 51 51 54
60 59 58 51 45 52 48 49 48 42 32 26 20 20 22 26 32 27 27 37 44 41 50 52 50 51 49 50 51 55 55 50
57 56 53 48 47 48 50 50 47 39 28 25 18 15 21 28 22 24 23 27 23 26 49 51 50 47 47 46 49 55 55 52
Wind_Direction
267 274 276 273 279 279 276 269 266 260 262 263 263 262 264 270 270 271 272 280 282 284 288 285 287 278 271 272 272 274 274 271
273 274 273 272 273 276 277 277 269 268 264 272 268 263 262 267 267 267 266 269 271 276 281 285 276 281 278 272 272 273 272 272
273 274 274 275 276 275 276 278 279 275 271 269 274 271 268 264 262 264 266 261 266 269 269 273 278 272 269 270 272 272 273 272
278 275 274 276 279 278 276 278 280 281 277 272 274 275 275 270 269 264 258 258 257 258 261 261 263 269 272 269 267 270 271 271
285 281 281 280 278 275 275 278 279 281 282 277 275 274 274 276 273 268 266 262 257 256 257 258 258 262 266 271 269 269 273 272
292 291 289 288 286 283 280 280 278 280 279 280 277 275 272 271 273 271 267 265 265 263 257 254 256 258 261 266 270 273 272 269
289 292 293 290 287 283 282 283 284 281 280 280 280 277 275 274 271 268 266 264 261 260 262 259 251 251 256 261 266 271 271 270
290 289 286 286 283 284 287 288 286 283 282 280 280 280 281 278 274 269 264 263 261 260 257 255 258 252 250 255 260 264 269 269
286 287 289 290 291 291 290 291 292 292 289 286 284 283 282 280 276 271 266 260 256 255 252 256 254 252 250 248 253 258 262 267
290 290 290 293 295 297 297 295 294 293 290 289 286 282 281 281 282 278 273 268 257 253 247 245 249 247 248 248 249 253 257 263
290 291 294 297 296 294 294 293 295 294 292 289 286 283 281 284 280 279 274 262 250 248 250 243 242 245 240 243 247 251 255 261
291 293 294 293 293 294 293 291 292 291 288 285 284 286 287 275 281 293 276 262 244 236 240 242 246 245 240 239 241 246 251 259
291 294 296 296 294 292 292 293 293 287 286 284 287 288 283 283 286 288 271 257 243 231 233 235 231 235 235 237 244 244 245 253
296 296 294 291 292 296 295 295 291 288 284 282 282 284 289 287 283 296 267 251 246 243 227 229 229 231 231 233 236 240 244 247
294 293 293 297 298 297 296 292 285 281 279 281 278 273 282 277 284 309 251 249 251 246 223 231 228 232 234 231 235 238 243 249
294 295 297 300 301 302 294 294 297 295 290 276 267 271 278 277 305 325 252 240 238 238 234 227 230 236 235 234 235 251 239 249
294 296 299 306 301 296 295 302 306 304 295 258 253 265 276 298 322 310 248 227 226 239 234 250 235 237 240 238 237 241 245 245
294 300 306 298 287 294 299 310 306 308 290 234 238 268 281 306 329 303 245 229 225 229 242 241 242 237 240 242 242 241 243 246
299 302 304 289 290 300 300 305 306 306 266 230 238 259 285 306 325 340 233 233 231 247 235 238 239 230 232 236 237 240 242 233